Tracking 30995 objects as of 5-Jul-2025
HD Live streaming from Space Station
objects crossing your sky now

STARLINK-30303

Track STARLINK-30303 now!
10-day predictions
STARLINK-30303 is classified as:


NORAD ID: 57677
Int'l Code: 2023-124Q
Perigee: 481.7 km
Apogee: 483.0 km
Inclination: 53.2 °
Period: 94.1 minutes
Semi major axis: 6853 km
RCS: Unknown
Launch date: August 22, 2023
Source: United States (US)
Launch site: AIR FORCE WESTERN TEST RANGE (AFWTR)
Your satellite tracking list
Your tracking list is empty




NASA's NSSDC Master Catalog

Two Line Element Set (TLE):
1 57677U 23124Q   25185.49971033  .00000446  00000-0  27178-4 0  9994
2 57677  53.1599 279.3018 0000968  99.4194 260.6916 15.30192456105579
Source of the keplerian elements: AFSPC